Weather in Rassvet

Russia / Republic of North Ossetia — Alania     43°04′53″N   44°25′25″E
temp.,
°C
wind,
m/s
gust,
m/s
humid.,
%
clouds,
%
prec.,
mm/h
press.,
hPa
HPBL,
m
7 march, sun
sun700:00+4ssw3348100 0.0 101636
03:00+2n135598 0.0 101886
06:00−4nw349685 4.6 1022423
09:00−4n339492 6.0 1022380
12:00−3n3384100 1.2 1022559
15:00−2ne237098 1.9 1021823
18:00−3ene2374100 0.1 1022182
21:00−5se127490 0.1 1023129
8 march, mon
mon800:00−5ssw00700 0.0 102257
03:00−6sw12740 0.0 102273
06:00−6sw017310 0.0 102161
09:00−3nnw116815 0.0 1019350
12:000nne2264100 0.0 1017674
15:000nne1263100 0.1 1016819
18:00−2n1173100 0.1 1017151
21:00−3sse1178100 0.2 101886
9 march, tue
tue900:00−4ssw017596 0.0 101854
03:00−5ssw017681 0.0 101853
06:00−5ssw117972 0.1 101984
09:00−2n117863 0.1 1018393
12:000n217380 0.0 1017670
15:00+2ne116470 0.1 1017764
18:00−1ne117042 0.0 1019167
21:00−2ssw126759 0.1 102289
10 march, wed
wed1000:00−4ssw1179100 0.9 102381
03:00−4s129297 2.1 102370
06:00−4sse119299 0.4 102453
09:00−2ne128396 0.4 1022398
12:00−1nne348599 0.3 1020569
15:00−1nne3487100 1.6 1019493
18:00−2ene3593100 1.4 1019396
21:00−3ene2490100 1.8 1019359
11 march, thu
thu1100:00−4ne1391100 0.2 1017244
03:00−4nne1297100 0.8 1016188
06:00−5ne3496100 2.3 1017329
09:00−4ne3491100 3.7 1018447
12:00−4ne4592100 1.3 1018556
15:00−4ne5790100 3.1 1019701
18:00−7ne3592100 1.1 1021480
21:00−8ene2491100 1.6 1024324